Location: Hamburg
(53.5554°N, 9.9941°E)
Time: 12:09:00
(UTC+01:00)

ISS - Pass Details

Date: 05 January 2018
Orbit: 402 x 407 km, 51.6° (Epoch: 19 January)

Event Time Altitude Azimuth Distance (km) Brightness Sun altitude
Exits shadow 07:36:25 - 270° (W) 1,573 -1.4 -8.2°
Reaches altitude 10° 07:36:40 10° 269° (W) 1,470 -1.5 -8.1°
Maximum altitude 07:39:53 53° 191° (SSW) 506 -3.2 -7.7°
Drops below altitude 10° 07:43:07 10° 114° (ESE) 1,470 0.8 -7.3°
Sets 07:45:13 0° 109° (ESE) 2,330 2.2 -7.0°
